Regional Weather Roundup
Issued by NWS Albany, NY

Current Version | Previous Version | Text Only | Print | Product List | Glossary On
Versions: 1 2 3 4 5 6 7 8 9 10 11 12 13 14 15 16 17 18 19 20 21 22 23 24 25 26 27 28 29 30 31 32 33 34 35 36 37 38 39 40 41 42 43 44 45 46 47 48 49 50
000
ASUS41 KALY 270310
RWRALY

NEW YORK STATE HOURLY WEATHER ROUNDUP
NATIONAL WEATHER SERVICE ALBANY NY
1100 PM EDT WED APR 26 2017

NOTE: "FAIR" INDICATES FEW OR NO CLOUDS BELOW 12,000 FEET WITH NO
SIGNIFICANT WEATHER AND/OR NO OBSTRUCTIONS TO VISIBILITY.

NYZ032-033-038>043-046>054-057>066-NYZ062>081-082-084-270400-
EAST


CITY           SKY/WX    TMP DP  RH WIND       PRES   REMARKS
ALBANY         CLOUDY    62  54  74 S7        29.83R
GLENS FALLS    CLOUDY    60  53  77 NE3       29.82S
POUGHKEEPSIE   CLOUDY    58  56  93 CALM      29.83R
NEWBURGH       CLOUDY    59  59 100 CALM      29.85S
MONTGOMERY     CLOUDY    58  56  93 CALM      29.83S
WHITE PLAINS   CLOUDY    58  56  93 SE3       29.83S
ISLIP          CLOUDY    56  55  97 SE5       29.84R FOG
NEW YORK CITY  CLOUDY    58  55  90 CALM      29.84R
CENTRAL PARK   CLOUDY    59  58  96 CALM      29.87R
$$

NYZ005>009-017-018-044>046-055-056-270400-
CENTRAL


CITY           SKY/WX    TMP DP  RH WIND       PRES   REMARKS
FULTON         CLEAR     63  55  75 E6        29.74S
SYRACUSE       PTCLDY    61  56  83 E9        29.74S
ROME           CLEAR     60  56  86 E9        29.78R
ELMIRA         CLEAR     57  52  83 CALM      29.76R
BINGHAMTON     CLEAR     61  54  77 SE8       29.79S
MONTICELLO     MOCLDY    55  55 100 CALM      29.86S
$$

NYZ026>034-041>043-087-270400-
NORTH


CITY           SKY/WX    TMP DP  RH WIND       PRES   REMARKS
WATERTOWN      CLEAR     55  55 100 E3        29.74S
FORT DRUM      NOT AVBL
OGDENSBURG     FAIR      57  55  92 E6        29.77S
MASSENA        CLOUDY    55  54  96 NE8       29.80R
SARANAC LAKE   CLEAR     53  53 100 CALM      29.80R
PLATTSBURGH    CLOUDY    58  52  80 SE6       29.80S
$$

NYZ001>004-010>016-019>021-085-270400-
WEST


CITY           SKY/WX    TMP DP  RH WIND       PRES   REMARKS
NIAGARA FALLS  CLEAR     56  50  80 NW6       29.69R
BUFFALO        PTCLDY    61  55  81 W6        29.69R
DUNKIRK        PTCLDY    56  52  86 CALM      29.70R
JAMESTOWN      CLEAR     66  52  59 S9        29.74R
WELLSVILLE     CLEAR     67  53  61 S8        29.78S
ROCHESTER      CLEAR     65  56  72 SE8       29.70F
PENN YAN       CLEAR     61  52  72 CALM      29.74S
$$

             KEY
       WCI = WIND CHILL INDEX
       VSB = VISIBILITY
       HX  = HEAT INDEX
$$



USA.gov is the U.S. government's official web portal to all federal, state and local government web resources and services.